Radiation Dose at Monitoring Post of Fukushima Daini Nuclear Power Station
Date,Time,MP-1(microSv/h),MP-2(microSv/h),MP-3(microSv/h),MP-4(microSv/h),MP-5(microSv/h),MP-6(microSv/h),MP-7(microSv/h),Wind Direction,Wind Velocity(m/s),Rain
2016/11/21,00:00,0.403,0.234,0.411,0.377,0.362,0.195,0.167,north,5.5,No
2016/11/21,00:10,0.403,0.233,0.413,0.375,0.362,0.194,0.166,north,7.5,No
2016/11/21,00:20,0.403,0.234,0.413,0.377,0.363,0.195,0.168,north,7.3,No
2016/11/21,00:30,0.403,0.232,0.412,0.375,0.362,0.195,0.167,north,7.4,No
2016/11/21,00:40,0.405,0.233,0.413,0.375,0.360,0.194,0.167,north,7.4,No
2016/11/21,00:50,0.403,0.233,0.410,0.379,0.361,0.195,0.167,north,6.9,No
2016/11/21,01:00,0.404,0.232,0.412,0.376,0.362,0.194,0.166,north,6.1,No
2016/11/21,01:10,0.405,0.234,0.412,0.378,0.360,0.194,0.167,north,5.5,No
2016/11/21,01:20,0.404,0.233,0.411,0.378,0.364,0.195,0.167,north,5.6,No
2016/11/21,01:30,0.402,0.232,0.411,0.376,0.360,0.194,0.167,north,7.2,No
2016/11/21,01:40,0.404,0.233,0.410,0.378,0.362,0.194,0.167,north,7.8,No
2016/11/21,01:50,0.403,0.233,0.412,0.377,0.363,0.195,0.168,north,8.1,No
2016/11/21,02:00,0.404,0.232,0.412,0.377,0.360,0.194,0.168,north,8.8,No
2016/11/21,02:10,0.405,0.232,0.409,0.378,0.362,0.196,0.168,north,8.6,No
2016/11/21,02:20,0.406,0.233,0.412,0.376,0.362,0.195,0.167,north,8.6,No
2016/11/21,02:30,0.406,0.233,0.411,0.380,0.361,0.194,0.167,north,8.7,No
2016/11/21,02:40,0.405,0.231,0.410,0.377,0.362,0.194,0.168,north,8.3,No
2016/11/21,02:50,0.405,0.233,0.413,0.378,0.359,0.195,0.167,north,7.5,No
2016/11/21,03:00,0.404,0.234,0.410,0.379,0.361,0.194,0.167,north,6.6,No
2016/11/21,03:10,0.404,0.232,0.413,0.377,0.363,0.195,0.167,north-northeast,6.3,No
2016/11/21,03:20,0.402,0.233,0.412,0.377,0.361,0.194,0.166,north-northeast,5.3,No
2016/11/21,03:30,0.406,0.233,0.411,0.376,0.362,0.195,0.165,north-northeast,6.1,No
2016/11/21,03:40,0.404,0.233,0.414,0.376,0.362,0.195,0.167,north-northeast,6.6,No
2016/11/21,03:50,0.401,0.233,0.411,0.378,0.360,0.194,0.166,north,6.7,No
2016/11/21,04:00,0.404,0.232,0.411,0.376,0.362,0.195,0.167,north,6.2,No
2016/11/21,04:10,0.402,0.233,0.414,0.377,0.360,0.194,0.166,north-northeast,7.0,No
2016/11/21,04:20,0.404,0.232,0.412,0.378,0.360,0.194,0.166,north-northeast,6.5,No
2016/11/21,04:30,0.402,0.232,0.412,0.377,0.360,0.194,0.168,north,5.0,No
2016/11/21,04:40,0.403,0.231,0.413,0.377,0.360,0.194,0.167,north,5.7,No
2016/11/21,04:50,0.404,0.234,0.413,0.378,0.359,0.194,0.166,north,5.9,No
2016/11/21,05:00,0.407,0.233,0.412,0.378,0.361,0.194,0.167,north,6.2,No
2016/11/21,05:10,0.404,0.233,0.414,0.378,0.360,0.194,0.167,north,6.0,No
2016/11/21,05:20,0.404,0.233,0.410,0.380,0.360,0.195,0.167,north,7.1,No
2016/11/21,05:30,0.406,0.232,0.412,0.377,0.360,0.194,0.166,north,7.3,No
2016/11/21,05:40,0.403,0.233,0.412,0.378,0.360,0.195,0.166,north,7.0,No
2016/11/21,05:50,0.405,0.232,0.411,0.377,0.359,0.194,0.167,north,7.0,No
2016/11/21,06:00,0.406,0.233,0.412,0.376,0.361,0.195,0.166,north-northwest,6.8,No
2016/11/21,06:10,0.404,0.233,0.413,0.375,0.361,0.194,0.168,north-northwest,6.7,No
2016/11/21,06:20,0.405,0.232,0.411,0.379,0.360,0.194,0.167,north,6.8,No
2016/11/21,06:30,0.403,0.233,0.414,0.376,0.360,0.194,0.168,north-northwest,6.1,No
2016/11/21,06:40,0.405,0.232,0.411,0.378,0.360,0.194,0.167,north-northwest,5.8,No
2016/11/21,06:50,0.404,0.233,0.411,0.379,0.360,0.194,0.167,north-northwest,5.8,No
2016/11/21,07:00,0.405,0.233,0.412,0.379,0.361,0.194,0.166,north-northwest,5.2,No
2016/11/21,07:10,0.405,0.232,0.412,0.376,0.360,0.194,0.168,north-northwest,4.6,No
2016/11/21,07:20,0.405,0.234,0.412,0.378,0.360,0.194,0.167,north-northwest,5.1,No
2016/11/21,07:30,0.406,0.232,0.412,0.375,0.359,0.194,0.166,north,5.9,No
2016/11/21,07:40,0.404,0.233,0.413,0.377,0.362,0.194,0.166,north-northwest,4.9,No
2016/11/21,07:50,0.403,0.232,0.411,0.377,0.361,0.194,0.167,north,4.4,No
2016/11/21,08:00,0.405,0.232,0.413,0.376,0.363,0.195,0.165,north,5.3,No
2016/11/21,08:10,0.404,0.232,0.414,0.378,0.362,0.195,0.167,north,5.2,No
2016/11/21,08:20,0.405,0.233,0.410,0.375,0.360,0.195,0.166,north,4.0,No
2016/11/21,08:30,0.405,0.233,0.414,0.375,0.362,0.194,0.166,north,2.9,No
2016/11/21,08:40,0.405,0.233,0.410,0.377,0.360,0.194,0.166,north,2.3,No
2016/11/21,08:50,0.405,0.234,0.410,0.376,0.363,0.195,0.166,north,2.3,No
2016/11/21,09:00,0.403,0.233,0.412,0.377,0.360,0.195,0.167,north-northeast,1.7,No
2016/11/21,09:10,0.402,0.234,0.411,0.375,0.359,0.194,0.166,north-northeast,2.5,No
2016/11/21,09:20,0.405,0.233,0.414,0.377,0.361,0.195,0.167,north-northeast,2.2,No
2016/11/21,09:30,0.403,0.231,0.411,0.376,0.359,0.194,0.167,north,2.8,No
2016/11/21,09:40,0.404,0.233,0.412,0.376,0.360,0.194,0.167,north,2.5,No
2016/11/21,09:50,0.401,0.232,0.413,0.375,0.360,0.193,0.167,north-northeast,3.1,No
2016/11/21,10:00,0.403,0.233,0.409,0.378,0.362,0.195,0.168,northeast,3.3,No
2016/11/21,10:10,0.403,0.232,0.411,0.375,0.358,0.195,0.167,north-northeast,2.4,No
2016/11/21,10:20,0.402,0.233,0.409,0.378,0.361,0.195,0.167,north,2.2,No
2016/11/21,10:30,0.403,0.232,0.413,0.375,0.362,0.194,0.166,northeast,3.1,No
2016/11/21,10:40,0.401,0.232,0.411,0.378,0.360,0.195,0.167,northeast,2.5,No
2016/11/21,10:50,0.405,0.233,0.410,0.375,0.360,0.194,0.166,northeast,2.7,No
2016/11/21,11:00,0.402,0.233,0.411,0.378,0.359,0.194,0.167,northeast,2.3,No
2016/11/21,11:10,0.403,0.234,0.413,0.376,0.361,0.194,0.167,northeast,2.8,No
2016/11/21,11:20,0.402,0.232,0.411,0.377,0.359,0.195,0.166,north-northeast,2.9,No
2016/11/21,11:30,0.404,0.234,0.412,0.376,0.362,0.195,0.167,northeast,2.2,No
2016/11/21,11:40,0.404,0.232,0.412,0.377,0.358,0.195,0.167,northeast,2.4,No
2016/11/21,11:50,0.403,0.233,0.411,0.376,0.361,0.195,0.166,northeast,1.1,No
2016/11/21,12:00,0.406,0.233,0.413,0.380,0.359,0.196,0.168,north,1.4,No
2016/11/21,12:10,0.402,0.234,0.410,0.375,0.363,0.195,0.167,north-northeast,2.1,No
2016/11/21,12:20,0.404,0.232,0.415,0.377,0.359,0.194,0.167,north-northeast,2.8,No
2016/11/21,12:30,0.403,0.234,0.412,0.376,0.363,0.194,0.166,northeast,2.4,No
2016/11/21,12:40,0.403,0.234,0.414,0.379,0.361,0.195,0.166,northeast,3.0,No
2016/11/21,12:50,0.404,0.233,0.409,0.378,0.360,0.193,0.167,north-northeast,2.7,No
2016/11/21,13:00,0.405,0.233,0.412,0.378,0.361,0.194,0.167,north-northeast,2.7,No
2016/11/21,13:10,0.406,0.232,0.411,0.377,0.359,0.194,0.167,north-northeast,2.8,No
2016/11/21,13:20,0.404,0.233,0.414,0.376,0.362,0.194,0.166,north-northeast,2.6,No
2016/11/21,13:30,0.405,0.232,0.410,0.379,0.360,0.194,0.167,north,2.6,No
2016/11/21,13:40,0.403,0.233,0.413,0.376,0.362,0.195,0.167,north-northeast,2.8,No
2016/11/21,13:50,0.404,0.233,0.412,0.378,0.360,0.194,0.167,north-northeast,3.6,No
2016/11/21,14:00,0.405,0.232,0.410,0.376,0.362,0.194,0.167,north-northeast,2.5,No
2016/11/21,14:10,0.404,0.234,0.412,0.378,0.361,0.194,0.167,north-northeast,2.2,No
2016/11/21,14:20,0.406,0.232,0.411,0.376,0.360,0.194,0.167,north-northeast,2.5,No
2016/11/21,14:30,0.404,0.234,0.413,0.380,0.361,0.194,0.167,north,1.3,No
2016/11/21,14:40,0.405,0.233,0.412,0.376,0.359,0.194,0.166,north,1.7,No
2016/11/21,14:50,0.405,0.233,0.411,0.378,0.363,0.194,0.166,north-northeast,1.5,No
2016/11/21,15:00,0.405,0.234,0.414,0.378,0.360,0.195,0.167,-,CALM,No
2016/11/21,15:10,0.404,0.233,0.411,0.376,0.362,0.195,0.167,-,CALM,No
2016/11/21,15:20,0.405,0.233,0.415,0.378,0.362,0.194,0.167,-,CALM,No
2016/11/21,15:30,0.404,0.234,0.412,0.377,0.359,0.194,0.166,-,CALM,No
2016/11/21,15:40,0.405,0.233,0.411,0.378,0.362,0.195,0.166,north,0.5,No
2016/11/21,15:50,0.402,0.233,0.413,0.377,0.361,0.195,0.167,north,1.4,No
2016/11/21,16:00,0.408,0.233,0.412,0.379,0.362,0.193,0.167,north,0.9,No
2016/11/21,16:10,0.406,0.235,0.414,0.377,0.361,0.195,0.167,north-northwest,1.3,No
2016/11/21,16:20,0.405,0.233,0.412,0.377,0.361,0.195,0.167,north,2.2,No
2016/11/21,16:30,0.406,0.234,0.414,0.380,0.360,0.195,0.167,north,3.0,No
2016/11/21,16:40,0.405,0.233,0.414,0.376,0.360,0.196,0.167,north,4.0,No
2016/11/21,16:50,0.405,0.233,0.411,0.379,0.361,0.195,0.167,north-northwest,4.7,No
2016/11/21,17:00,0.405,0.234,0.414,0.378,0.361,0.194,0.167,north-northwest,4.8,No
2016/11/21,17:10,0.407,0.235,0.412,0.378,0.361,0.194,0.167,north-northwest,4.5,No
2016/11/21,17:20,0.405,0.234,0.413,0.379,0.361,0.195,0.167,north,5.0,No
2016/11/21,17:30,0.406,0.233,0.415,0.377,0.362,0.195,0.167,north-northwest,4.7,No
2016/11/21,17:40,0.405,0.234,0.414,0.378,0.360,0.195,0.167,north-northwest,5.2,No
2016/11/21,17:50,0.406,0.232,0.415,0.377,0.362,0.195,0.166,north-northwest,5.0,No
2016/11/21,18:00,0.406,0.234,0.413,0.378,0.361,0.195,0.167,north-northwest,4.7,No
2016/11/21,18:10,0.405,0.234,0.415,0.379,0.361,0.195,0.168,north-northwest,5.0,No
2016/11/21,18:20,0.407,0.233,0.414,0.378,0.360,0.195,0.168,north,4.2,No
2016/11/21,18:30,0.406,0.232,0.412,0.378,0.362,0.194,0.168,north,4.5,No
2016/11/21,18:40,0.405,0.232,0.413,0.379,0.361,0.195,0.168,north,5.0,No
2016/11/21,18:50,0.407,0.233,0.411,0.378,0.362,0.196,0.167,north,4.5,No
2016/11/21,19:00,0.406,0.234,0.413,0.379,0.361,0.194,0.166,north,4.5,No
2016/11/21,19:10,0.405,0.233,0.413,0.377,0.362,0.196,0.168,north,4.6,No
2016/11/21,19:20,0.406,0.234,0.414,0.379,0.362,0.195,0.168,north,4.0,No
2016/11/21,19:30,0.405,0.233,0.413,0.377,0.362,0.196,0.169,north,3.1,No
2016/11/21,19:40,0.407,0.234,0.413,0.378,0.363,0.196,0.167,north-northwest,2.9,Yes
2016/11/21,19:50,0.405,0.236,0.416,0.378,0.361,0.196,0.168,north,5.3,Yes
2016/11/21,20:00,0.405,0.235,0.415,0.377,0.362,0.197,0.169,north-northwest,5.8,Yes
2016/11/21,20:10,0.409,0.234,0.415,0.381,0.364,0.197,0.170,north-northwest,6.2,Yes
2016/11/21,20:20,0.409,0.236,0.417,0.379,0.363,0.197,0.169,north-northwest,6.2,Yes
2016/11/21,20:30,0.409,0.235,0.414,0.381,0.363,0.197,0.170,north-northwest,6.5,Yes
2016/11/21,20:40,0.410,0.235,0.415,0.381,0.365,0.196,0.169,northwest,5.3,Yes
2016/11/21,20:50,0.407,0.236,0.415,0.379,0.362,0.198,0.170,northwest,4.5,Yes
2016/11/21,21:00,0.406,0.235,0.413,0.380,0.363,0.199,0.171,northwest,3.6,Yes
2016/11/21,21:10,0.408,0.238,0.415,0.378,0.362,0.199,0.173,north-northwest,5.3,Yes
2016/11/21,21:20,0.407,0.238,0.413,0.377,0.364,0.200,0.172,north-northwest,5.6,Yes
2016/11/21,21:30,0.410,0.239,0.414,0.381,0.364,0.202,0.173,west-northwest,6.8,Yes
2016/11/21,21:40,0.409,0.239,0.415,0.380,0.364,0.202,0.174,north-northwest,6.3,Yes
2016/11/21,21:50,0.408,0.241,0.413,0.380,0.366,0.203,0.176,north-northwest,7.5,Yes
2016/11/21,22:00,0.409,0.243,0.415,0.382,0.366,0.205,0.175,southwest,5.5,Yes
2016/11/21,22:10,0.408,0.242,0.413,0.379,0.365,0.204,0.176,north-northwest,6.5,Yes
2016/11/21,22:20,0.407,0.242,0.412,0.378,0.364,0.205,0.175,north-northeast,5.7,Yes
2016/11/21,22:30,0.407,0.240,0.411,0.376,0.365,0.203,0.174,north-northwest,4.3,Yes
2016/11/21,22:40,0.403,0.240,0.409,0.375,0.364,0.203,0.173,northwest,3.0,Yes
2016/11/21,22:50,0.407,0.239,0.407,0.377,0.363,0.204,0.175,northwest,4.4,Yes
2016/11/21,23:00,0.407,0.240,0.409,0.377,0.368,0.202,0.175,north-northwest,5.0,Yes
2016/11/21,23:10,0.404,0.240,0.407,0.375,0.363,0.201,0.173,north,6.4,No
2016/11/21,23:20,0.406,0.238,0.410,0.376,0.366,0.199,0.172,north,7.1,Yes
2016/11/21,23:30,0.403,0.237,0.407,0.374,0.364,0.198,0.171,north,8.6,Yes
2016/11/21,23:40,0.401,0.237,0.406,0.373,0.362,0.197,0.170,north,7.3,Yes
2016/11/21,23:50,0.401,0.235,0.407,0.372,0.364,0.197,0.170,north-northwest,7.5,Yes
